Regional Weather Roundup
Issued by NWS

Home | Current Version | Previous Version | Text Only | Print | Product List | Glossary Off
Versions: 1 2 3 4 5 6 7 8 9 10 11 12 13 14 15 16 17 18 19 20 21 22 23 24 25 26 27 28 29 30 31 32 33 34 35 36 37 38 39 40 41 42 43 44 45 46 47 48 49 50

000
ASUS45 KABQ 230101
RWRNM
NEW MEXICO REGIONAL WEATHER ROUNDUP
NATIONAL WEATHER SERVICE ALBUQUERQUE NM
700 PM MDT FRI MAY 22 2015

NOTE: "FAIR" MEANS FEW OR NO CLOUDS BELOW 12,000 FEET AGL WITH NO
       SIGNIFICANT WEATHER OR OBSTRUCTIONS TO VISION.

      THIS PRODUCT IS RELEASED AS TWO VERSIONS.  ONE VERSION NEAR
      THE TOP OF THE HOUR CONTAINING PRELIMINARY DATA FROM ALBUQUERQUE
      AND OTHER STATIONS.  A FINAL VERSION WITH ADDITIONAL DATA IS
      ISSUED ABOUT 10 MINUTES AFTER THE HOUR.

NMZ501-503-504-510>518-230200-
NORTHWEST PLATEAU/NORTHCENTRAL MOUNTAINS

CITY           SKY/WX    TMP DP  RH WIND       PRES   REMARKS
FARMINGTON     SUNNY     66  32  28 SE14G24   29.84F
LOS ALAMOS     CLOUDY    57  35  43 SW7       30.05S
SANTA FE       PTSUNNY   65  33  30 S17G28    29.97F
TAOS           CLOUDY    59  36  41 W10       30.03S
ANGEL FIRE     LGT RAIN  54  37  52 W7        30.09F

$$
NMZ402-403-502-505>509-230200-
WESTCENTRAL MOUNTAINS/SOUTHWEST MOUNTAINS

CITY           SKY/WX    TMP DP  RH WIND       PRES   REMARKS
GALLUP         CLOUDY    63  18  17 SW23G29   29.94S
GRANTS         PTSUNNY   66  12  12 SW13G23   29.95R
SILVER CITY    SUNNY     73  14  10 SW22G30   29.97F

$$
NMZ407-409-411-412-230200-
SOUTHERN DESERTS

CITY           SKY/WX    TMP DP  RH WIND       PRES   REMARKS
LORDSBURG      FAIR      79  14   8 S28G37    29.89S
DEMING         SUNNY     82  13   7 SW21G31   29.88S
LAS CRUCES     MOSUNNY   83   9   6 SW24G30   29.90S
ALAMOGORDO     MOSUNNY   82  18   9 S16G29    29.88F
T OR C         SUNNY     80  13   8 S17G29    29.87F

$$
NMZ519>523-230200-
CENTRAL VALLEYS/CENTRAL HIGHLANDS

CITY           SKY/WX    TMP DP  RH WIND       PRES   REMARKS
ALBUQUERQUE    MOSUNNY   73  34  23 S28G38    29.90F
DOUBLE EAGLE   MOSUNNY   70  36  28 S26G33    29.93F
MORIARTY ARPT  FAIR      67  32  27 S18G26    30.01S
CLINES CORNERS MOSUNNY   59  48  67 SE24G30   30.04F
BELEN          FAIR      75  21  13 S28G35    29.88F
SOCORRO        FAIR      77  16  10 S22G33    29.87F

$$
NMZ524>526-539-540-230200-
SOUTHCENTRAL MOUNTAINS

CITY           SKY/WX    TMP DP  RH WIND       PRES   REMARKS
RUIDOSO        NOT AVBL

$$
NMZ527>531-230200-
NORTHEAST HIGHLANDS/NORTHEAST PLAINS

CITY           SKY/WX    TMP DP  RH WIND       PRES   REMARKS
LAS VEGAS      MOSUNNY   57  46  66 S18       30.04F
RATON          PTSUNNY   62  42  47 S23G30    29.98S
CLAYTON        CLEAR     65  49  56 S22       29.98F

$$
NMZ532>537-230200-
EASTCENTRAL PLAINS

CITY           SKY/WX    TMP DP  RH WIND       PRES   REMARKS
TUCUMCARI      CLEAR     69  53  56 S16       29.96S
CANNON AFB     NOT AVBL
CLOVIS AIRPORT MOCLDY    63  55  77 SE15      30.03S

$$
NMZ028-029-538-230200-
SOUTHEAST PLAINS

CITY           SKY/WX    TMP DP  RH WIND       PRES   REMARKS
ROSWELL        PTSUNNY   75  57  53 SE18      29.91F
ARTESIA        MOCLDY    75  61  60 SE20      29.92S
CARLSBAD       MOCLDY    75  61  61 SE14      29.92S
HOBBS          MOCLDY    66  66 100 E15       30.01R


$$



USA.gov is the U.S. government's official web portal to all federal, state and local government web resources and services.